Seldovia, AK

10:23 PM AKDT on October 18, 2017 (GMT -0800)
Seldovia

Weather History for PASO - October, 2012

Change the Weather History Date:

Friday, October 26, 2012

  Actual Average (PAHO) Record (PAHO)
Temperature  
Mean Temperature 28 °F -  
Max Temperature 37 °F 38 °F 52 °F (2013)
Min Temperature 19 °F 26 °F 8 °F (1966)
Degree Days  
Heating Degree Days 38    
Moisture  
Dew Point 21 °F    
Average Humidity 83    
Maximum Humidity 96    
Minimum Humidity 59    
Precipitation  
Precipitation 0.00 in - - ()
Sea Level Pressure  
Sea Level Pressure 30.33 in    
Wind  
Wind Speed 1 mph (North)    
Max Wind Speed 9 mph    
Max Gust Speed -    
Visibility 10 miles    
Events      
Averages and records for this station are not official NWS values.
T = Trace of Precipitation, MM = Missing Value Source: NWS Daily Summary

Daily Weather History Graph

Daily Weather History Graph

Search for Another Location

Airport or City:

Trip Planner

Search our weather history database for the weather conditions in past years. The results will help you decide how hot, cold, wet, or windy it might be!

Date:

Astronomy

Oct. 26, 2012 Rise Set
Actual Time 9:13 AM AKDT 6:26 PM AKDT
Civil Twilight 8:30 AM AKDT 7:09 PM AKDT
Nautical Twilight 7:42 AM AKDT 7:57 PM AKDT
Astronomical Twilight 6:54 AM AKDT 8:45 PM AKDT
Moon 5:14 PM AKDT (10/26) 5:46 AM AKDT (10/26)
Length of Visible Light 10h 39m
Length of Day
9h 13m
Waxing Gibbous, 92% of the Moon is Illuminated
Oct 26
Waxing Gibbous
Oct 29
Full
Nov 6
Last Quarter
Nov 13
New
Nov 20
First Quarter

Hourly Weather History & Observations

Time (AKDT) Temp. Windchill Dew Point Humidity Pressure Visibility Wind Dir Wind Speed Gust Speed Precip Events Conditions
12:53 AM 23.0 °F - 19.9 °F 88% 30.46 in 10.0 mi Calm Calm - N/A   Clear
1:53 AM 23.0 °F - 19.9 °F 88% 30.46 in 10.0 mi Calm Calm - N/A   Clear
2:53 AM 21.9 °F - 19.0 °F 89% 30.45 in 10.0 mi Calm Calm - N/A   Clear
3:53 AM 21.9 °F - 19.9 °F 92% 30.44 in 10.0 mi Calm Calm - N/A   Clear
4:53 AM 21.9 °F - 19.0 °F 89% 30.43 in 10.0 mi Calm Calm - N/A   Clear
5:53 AM 21.9 °F - 18.0 °F 85% 30.42 in 10.0 mi Calm Calm - N/A   Clear
6:53 AM 21.0 °F - 17.1 °F 85% 30.40 in 10.0 mi Calm Calm - N/A   Clear
7:53 AM 19.9 °F - 17.1 °F 89% 30.40 in 8.0 mi Calm Calm - N/A   Clear
8:53 AM 19.9 °F - 17.1 °F 89% 30.39 in 10.0 mi Calm Calm - N/A   Clear
9:53 AM 19.0 °F - 16.0 °F 88% 30.38 in 10.0 mi Calm Calm - N/A   Clear
10:53 AM 19.9 °F - 17.1 °F 89% 30.37 in 10.0 mi Calm Calm - N/A   Clear
11:53 AM 27.0 °F - 26.1 °F 96% 30.36 in 10.0 mi Calm Calm - N/A   Clear
12:53 PM 30.9 °F - 28.0 °F 89% 30.34 in 10.0 mi Calm Calm - N/A   Clear
1:53 PM 36.0 °F - 28.0 °F 73% 30.33 in 10.0 mi Calm Calm - N/A   Clear
2:53 PM 36.0 °F 32.1 °F 24.1 °F 62% 30.31 in 10.0 mi North 4.6 mph - N/A   Clear
3:53 PM 36.0 °F 29.0 °F 24.1 °F 62% 30.30 in 10.0 mi NNE 9.2 mph - N/A   Clear
4:53 PM 36.0 °F 30.3 °F 23.0 °F 59% 30.26 in 10.0 mi North 6.9 mph - N/A   Clear
5:53 PM 34.0 °F - 21.9 °F 61% 30.25 in 10.0 mi Calm Calm - N/A   Clear
6:53 PM 28.9 °F - 24.1 °F 82% 30.24 in 10.0 mi Calm Calm - N/A   Clear
7:53 PM 27.0 °F - 23.0 °F 85% 30.23 in 10.0 mi Calm Calm - N/A   Clear
8:53 PM 26.1 °F - 21.9 °F 84% 30.22 in 10.0 mi Calm Calm - N/A   Clear
9:53 PM 24.1 °F - 21.0 °F 88% 30.21 in 10.0 mi Calm Calm - N/A   Clear
10:53 PM 23.0 °F - 19.9 °F 88% 30.19 in 10.0 mi Calm Calm - N/A   Clear
11:53 PM 21.9 °F 17.2 °F 19.0 °F 89% 30.19 in 10.0 mi South 3.5 mph - N/A   Clear